Location: Unspecified
(42.9278°N, 0.0000°E)
Time: 07:54:39
(UTC+00:00)

SAUDISAT 3 - Visible Passes

Search period start: 04 April 2026 00:00
Search period end: 14 April 2026 00:00
Orbit: 646 x 668 km, 98.1° (Epoch: 28 March)

Date Brightness Start Highest point End Pass type
(mag) Time Alt. Az. Time Alt. Az. Time Alt. Az.
4 Apr ? 02:09:46 10° NNE 02:12:06 28° NE 02:12:06 28° NE visible
4 Apr ? 03:47:37 10° NNW 03:50:02 17° NW 03:50:02 17° NW visible
5 Apr ? 02:38:14 10° NNE 02:41:07 40° N 02:41:07 40° N visible
6 Apr ? 01:30:57 10° NE 01:32:13 15° ENE 01:32:13 15° ENE visible
6 Apr ? 03:06:59 10° N 03:10:09 35° NW 03:10:09 35° NW visible
7 Apr ? 01:58:47 10° NNE 02:01:14 27° NE 02:01:14 27° NE visible
7 Apr ? 03:36:06 10° NNW 03:39:09 22° WNW 03:39:09 22° WNW visible
8 Apr ? 02:27:07 10° NNE 02:30:14 44° NNE 02:30:14 44° NNE visible
8 Apr ? 04:06:01 10° NW 04:07:48 12° WNW 04:08:10 12° WNW visible
9 Apr ? 01:20:24 10° NE 01:21:19 13° ENE 01:21:19 13° ENE visible
9 Apr ? 02:55:45 10° N 02:59:15 46° NNW 02:59:15 46° NNW visible
10 Apr ? 01:47:52 10° NE 01:50:20 24° ENE 01:50:20 24° ENE visible
10 Apr ? 03:24:42 10° N 03:28:16 28° WNW 03:28:16 28° WNW visible
11 Apr ? 02:16:01 10° NNE 02:19:21 44° NE 02:19:21 44° NE visible
11 Apr ? 03:54:10 10° NNW 03:56:49 16° WNW 03:57:17 15° WNW visible
12 Apr ? 01:10:17 10° ENE 01:10:25 10° ENE 01:10:25 10° ENE visible
12 Apr ? 02:44:32 10° N 02:48:21 60° NNW 02:48:21 60° NNW visible
13 Apr ? 01:37:02 10° NE 01:39:26 20° ENE 01:39:26 20° ENE visible
13 Apr ? 03:13:22 10° N 03:17:22 36° WNW 03:17:22 36° WNW visible
